NEWPRT Weather Reports


Display with metric or nautical units.
time (UTC)temp
F
wind
direction
speed
MPH
gust
MPH
rain 1hr
in
rain 24hr
in
rain mn
in
humidity
%
barometer
mb
20260506222449 0 116 1.0 6.0 0.00 0.00 0.00 65 1023.9
20260506221926 0 141 0.0 6.0 0.00 0.00 0.00 64 1024.1
20260506221403 0 117 0.0 6.0 0.00 0.00 0.00 63 1023.8
20260506220841 0 29 0.0 3.0 0.00 0.00 0.00 64 1023.9
20260506220317 0 135 0.0 2.0 0.00 0.00 0.00 62 1023.8
20260506215754 0 162 0.0 3.0 0.00 0.00 0.00 64 1024.0
20260506215231 0 133 0.0 3.0 0.00 0.00 0.00 64 1023.8
20260506214708 0 127 0.0 1.0 0.00 0.00 0.00 63 1023.8
20260506214145 0 0 0.0 2.0 0.00 0.00 0.00 64 1023.9
20260506213622 0 130 0.0 2.0 0.00 0.00 0.00 62 1023.5
20260506213059 0 0 0.0 2.0 0.00 0.00 0.00 60 1023.5
20260506212538 0 133 0.0 3.0 0.00 0.00 0.00 60 1023.6
20260506212013 0 127 0.0 3.0 0.00 0.00 0.00 56 1023.4
20260506211450 0 238 1.0 3.0 0.00 0.00 0.00 60 1023.6
20260506210927 0 141 0.0 1.0 0.00 0.00 0.00 58 1023.5
20260506210404 0 190 0.0 1.0 0.00 0.00 0.00 57 1023.4
20260506205841 0 0 0.0 4.0 0.00 0.00 0.00 58 1023.3
20260506205319 0 0 0.0 4.0 0.00 0.00 0.00 57 1023.4
20260506204755 0 186 1.0 1.0 0.00 0.00 0.00 58 1023.5
20260506204232 0 0 0.0 0.0 0.00 0.00 0.00 59 1023.6
20260506203709 0 217 0.0 3.0 0.00 0.00 0.00 58 1023.2
20260506203146 0 51 0.0 3.0 0.00 0.00 0.00 58 1023.2
20260506202624 0 61 0.0 4.0 0.00 0.00 0.00 60 1023.5
20260506202100 0 61 0.0 4.0 0.00 0.00 0.00 59 1023.5
20260506201537 0 46 1.0 4.0 0.00 0.00 0.00 60 1023.3
20260506201014 0 58 0.0 3.0 0.00 0.00 0.00 57 1023.1
20260506200451 0 67 0.0 3.0 0.00 0.00 0.00 58 1023.4
20260506195928 0 0 0.0 2.0 0.00 0.00 0.00 57 1023.5
20260506195405 0 145 0.0 2.0 0.00 0.00 0.00 56 1023.3
20260506194842 0 63 1.0 2.0 0.00 0.00 0.00 57 1023.3
20260506194319 0 12 0.0 1.0 0.00 0.00 0.00 56 1023.3
20260506193756 0 242 0.0 0.0 0.00 0.00 0.00 55 1023.3
20260506193233 0 0 0.0 0.0 0.00 0.00 0.00 56 1023.3
20260506192710 0 0 0.0 0.0 0.00 0.00 0.00 56 1023.2
20260506192149 0 0 0.0 0.0 0.00 0.00 0.00 59 1023.4
20260506191624 0 242 0.0 0.0 0.00 0.00 0.00 58 1023.4
20260506191101 0 0 0.0 1.0 0.00 0.00 0.00 56 1023.2
20260506190538 0 0 0.0 1.0 0.00 0.00 0.00 58 1023.3
20260506190015 0 263 0.0 1.0 0.00 0.00 0.00 57 1023.2
20260506185452 0 106 0.0 4.0 0.00 0.00 0.00 58 1023.4
20260506184930 0 0 0.0 4.0 0.00 0.00 0.00 57 1023.3
20260506184406 0 33 0.0 4.0 0.00 0.00 0.00 57 1023.3
20260506183843 0 0 0.0 1.0 0.00 0.00 0.00 57 1023.2
20260506183320 0 186 0.0 1.0 0.00 0.00 0.00 59 1023.4
20260506182757 0 0 0.0 2.0 0.00 0.00 0.00 58 1023.2
20260506182234 0 176 0.0 2.0 0.00 0.00 0.00 58 1022.9
20260506181711 0 211 0.0 1.0 0.00 0.00 0.00 57 1023.0
20260506181148 0 254 0.0 3.0 0.00 0.00 0.00 60 1023.2
20260506180625 0 253 0.0 3.0 0.00 0.00 0.00 57 1023.0
20260506175540 0 0 0.0 0.0 0.00 0.00 0.00 61 1023.0
20260506175016 0 0 0.0 0.0 0.00 0.00 0.00 62 1022.8
20260506174453 0 0 0.0 2.0 0.00 0.00 0.00 60 1022.9
20260506173930 0 0 0.0 2.0 0.00 0.00 0.00 59 1022.8
20260506173407 0 191 0.0 2.0 0.00 0.00 0.00 59 1022.7
20260506172844 0 281 0.0 2.0 0.00 0.00 0.00 60 1022.7
20260506172321 0 320 0.0 2.0 0.00 0.00 0.00 61 1022.7
20260506171758 0 0 0.0 0.0 0.00 0.00 0.00 60 1022.6
20260506171234 0 0 0.0 0.0 0.00 0.00 0.00 60 1022.5
20260506170712 0 0 0.0 0.0 0.00 0.00 0.00 62 1022.6
20260506170149 0 0 0.0 0.0 0.00 0.00 0.00 62 1022.7
20260506165625 0 0 0.0 0.0 0.00 0.00 0.00 60 1022.6
20260506165102 0 0 0.0 0.0 0.00 0.00 0.00 62 1022.6
20260506164540 0 0 0.0 0.0 0.00 0.00 0.00 60 1022.4
20260506164017 0 0 0.0 0.0 0.00 0.00 0.00 61 1022.4
20260506163454 0 0 0.0 0.0 0.00 0.00 0.00 65 1022.7
20260506162930 0 0 0.0 0.0 0.00 0.00 0.00 60 1022.1
20260506162407 0 0 0.0 0.0 0.00 0.00 0.00 63 1022.1
20260506161845 0 0 0.0 0.0 0.00 0.00 0.00 60 1022.3
20260506161321 0 0 0.0 0.0 0.00 0.00 0.00 61 1022.3
20260506160758 0 0 0.0 0.0 0.00 0.00 0.00 61 1022.2
20260506160235 0 0 0.0 0.0 0.00 0.00 0.00 62 1022.1
20260506155712 0 0 0.0 0.0 0.00 0.00 0.00 63 1022.3
20260506155150 0 0 0.0 0.0 0.00 0.00 0.00 64 1022.4
20260506154626 0 0 0.0 0.0 0.00 0.00 0.00 62 1021.9
20260506154103 0 0 0.0 0.0 0.00 0.00 0.00 62 1021.9
20260506153541 0 0 0.0 0.0 0.00 0.00 0.00 62 1021.8
20260506153017 0 0 0.0 0.0 0.00 0.00 0.00 62 1021.8
20260506152455 0 0 0.0 0.0 0.00 0.00 0.00 62 1021.6
20260506151931 0 0 0.0 0.0 0.00 0.00 0.00 63 1021.6
20260506151408 0 0 0.0 0.0 0.00 0.00 0.00 64 1021.6
20260506150845 0 0 0.0 0.0 0.00 0.00 0.00 63 1021.7
20260506150322 0 0 0.0 0.0 0.00 0.00 0.00 63 1021.5
20260506145759 0 0 0.0 0.0 0.00 0.00 0.00 63 1021.2
20260506145236 0 0 0.0 0.0 0.00 0.00 0.00 66 1021.7
20260506144713 0 0 0.0 0.0 0.00 0.00 0.00 65 1022.0
20260506144151 0 0 0.0 0.0 0.00 0.00 0.00 62 1021.6
20260506143627 0 0 0.0 0.0 0.00 0.00 0.00 62 1021.8
20260506143104 0 0 0.0 0.0 0.00 0.00 0.00 65 1021.7
20260506142541 0 0 0.0 0.0 0.00 0.00 0.00 65 1022.1
20260506142019 0 0 0.0 0.0 0.00 0.00 0.00 65 1022.0
20260506141455 0 0 0.0 0.0 0.00 0.00 0.00 65 1021.9
20260506140932 0 0 0.0 0.0 0.00 0.00 0.00 65 1022.0
20260506140409 0 0 0.0 0.0 0.00 0.00 0.00 65 1021.9
20260506135846 0 0 0.0 0.0 0.00 0.00 0.00 65 1021.8
20260506135325 0 0 0.0 0.0 0.00 0.00 0.00 65 1021.7
20260506134800 0 0 0.0 0.0 0.00 0.01 0.00 65 1021.4
20260506134238 0 0 0.0 0.0 0.00 0.01 0.00 65 1021.4
20260506133715 0 0 0.0 0.0 0.00 0.01 0.00 65 1021.4
20260506133151 0 0 0.0 0.0 0.00 0.01 0.00 62 1020.9
20260506132630 0 0 0.0 0.0 0.00 0.01 0.00 63 1020.8
20260506132106 0 0 0.0 0.0 0.00 0.01 0.00 63 1021.2
20260506131542 0 0 0.0 0.0 0.00 0.01 0.00 67 1021.5
20260506131020 0 0 0.0 0.0 0.00 0.01 0.00 63 1021.1
20260506130457 0 0 0.0 0.0 0.00 0.01 0.00 63 1021.0
20260506125933 0 0 0.0 0.0 0.00 0.01 0.00 63 1020.8
20260506125410 0 0 0.0 0.0 0.00 0.01 0.00 66 1021.2
20260506124847 0 0 0.0 0.0 0.00 0.01 0.00 66 1021.1
20260506124324 0 0 0.0 0.0 0.00 0.01 0.00 66 1021.0
20260506123801 0 0 0.0 0.0 0.00 0.01 0.00 66 1021.0
20260506123238 0 0 0.0 0.0 0.00 0.01 0.00 63 1020.5
20260506122715 0 0 0.0 0.0 0.00 0.01 0.00 64 1020.5
20260506122153 0 0 0.0 0.0 0.00 0.01 0.00 65 1020.3
20260506121629 0 0 0.0 0.0 0.00 0.01 0.00 67 1020.6
20260506121106 0 0 0.0 0.0 0.00 0.01 0.00 66 1020.9
20260506120544 0 0 0.0 0.0 0.00 0.01 0.00 66 1020.8
20260506120020 0 0 0.0 0.0 0.00 0.01 0.00 66 1020.6
20260506115457 0 0 0.0 0.0 0.00 0.01 0.00 66 1020.9
20260506114934 0 147 0.0 3.0 0.00 0.01 0.00 66 1021.0
20260506114413 0 49 0.0 3.0 0.00 0.01 0.00 66 1020.8
20260506113848 0 35 1.0 3.0 0.00 0.01 0.00 65 1020.9
20260506113325 0 1 0.0 2.0 0.00 0.01 0.00 66 1020.6
20260506112802 0 0 0.0 0.0 0.00 0.01 0.00 66 1020.8
20260506112239 0 0 0.0 0.0 0.00 0.01 0.00 66 1020.8
20260506111716 0 0 0.0 0.0 0.00 0.01 0.00 67 1020.6
20260506111153 0 0 0.0 0.0 0.00 0.01 0.00 67 1020.6
20260506110630 0 0 0.0 0.0 0.00 0.01 0.00 67 1020.6
20260506110107 0 0 0.0 0.0 0.00 0.01 0.00 66 1020.6
20260506105544 0 0 0.0 0.0 0.00 0.01 0.00 66 1020.4
20260506105021 0 0 0.0 0.0 0.00 0.01 0.00 67 1020.3
20260506104458 0 0 0.0 0.0 0.00 0.01 0.00 66 1020.4
20260506103935 0 0 0.0 3.0 0.00 0.01 0.00 66 1020.4
20260506103414 0 0 0.0 3.0 0.00 0.01 0.00 66 1020.2
20260506102849 0 46 0.0 3.0 0.00 0.01 0.00 66 1020.1
20260506102326 0 0 0.0 0.0 0.00 0.01 0.00 67 1020.2
20260506101803 0 0 0.0 0.0 0.00 0.01 0.00 68 1020.3
20260506101639 0 0 0.0 0.0 0.00 0.01 0.00 69 1020.2
20260506101240 0 0 0.0 0.0 0.00 0.01 0.00 69 1020.2
20260506100717 0 0 0.0 0.0 0.00 0.01 0.00 69 1020.1
20260506100154 0 0 0.0 0.0 0.00 0.01 0.00 68 1020.1
20260506095631 0 0 0.0 0.0 0.00 0.01 0.00 68 1020.1
20260506095108 0 0 0.0 0.0 0.00 0.01 0.00 68 1020.0
20260506094545 0 0 0.0 3.0 0.00 0.01 0.00 69 1019.9
20260506094022 0 0 0.0 3.0 0.00 0.01 0.00 69 1019.9
20260506093459 0 142 0.0 3.0 0.00 0.01 0.00 68 1020.0
20260506092936 0 135 1.0 3.0 0.00 0.01 0.00 66 1019.7
20260506092413 0 0 0.0 0.0 0.00 0.01 0.00 67 1019.6
20260506091849 0 0 0.0 0.0 0.00 0.01 0.00 67 1019.6
20260506091326 0 0 0.0 0.0 0.00 0.01 0.00 66 1019.7
20260506090803 0 0 0.0 0.0 0.00 0.01 0.00 66 1019.6
20260506090240 0 0 0.0 0.0 0.00 0.01 0.00 67 1019.6
20260506085718 0 0 0.0 0.0 0.00 0.01 0.00 67 1019.6
20260506085155 0 0 0.0 2.0 0.00 0.01 0.00 67 1019.6
20260506084631 0 0 0.0 2.0 0.00 0.02 0.00 66 1019.6
20260506084108 0 149 0.0 4.0 0.00 0.02 0.00 67 1019.6
20260506083547 0 141 0.0 4.0 0.00 0.02 0.00 65 1019.4
20260506083022 0 148 0.0 4.0 0.00 0.02 0.00 65 1019.3
20260506082459 0 0 0.0 2.0 0.00 0.02 0.00 67 1019.4
20260506081937 0 152 0.0 2.0 0.00 0.02 0.00 67 1019.3
20260506081413 0 0 0.0 0.0 0.00 0.02 0.00 67 1019.3
20260506080851 0 0 0.0 0.0 0.00 0.02 0.00 67 1019.4
20260506080327 0 0 0.0 0.0 0.00 0.02 0.00 67 1019.4
20260506073109 0 0 0.0 0.0 0.00 0.02 0.00 67 1018.9
20260506072547 0 0 0.0 0.0 0.00 0.02 0.00 67 1019.1
20260506072023 0 0 0.0 0.0 0.00 0.02 0.00 67 1018.8
20260506071500 0 0 0.0 0.0 0.00 0.02 0.00 67 1018.7
20260506070939 0 0 0.0 0.0 0.00 0.02 0.00 67 1018.7
20260506070415 0 0 0.0 0.0 0.00 0.02 0.00 67 1018.7
20260506062204 0 0 0.0 0.0 0.00 0.03 0.00 69 1018.4
20260506062110 0 0 0.0 0.0 0.00 0.03 0.00 69 1018.4
20260506061548 0 0 0.0 0.0 0.00 0.03 0.00 68 1018.6
20260506061024 0 0 0.0 0.0 0.00 0.03 0.00 68 1018.6
20260506060501 0 0 0.0 0.0 0.00 0.03 0.00 68 1018.6
20260506051112 0 0 0.0 0.0 0.00 0.04 0.00 67 1018.5
20260506050548 0 0 0.0 0.0 0.00 0.04 0.00 67 1018.5
20260506044939 0 0 0.0 0.0 0.00 0.04 0.00 68 1018.3
20260506044416 0 0 0.0 0.0 0.00 0.04 0.00 68 1018.4
20260506043853 0 0 0.0 0.0 0.00 0.04 0.00 67 1018.3
20260506043330 0 0 0.0 0.0 0.00 0.04 0.00 68 1018.1
20260506042807 0 0 0.0 0.0 0.00 0.04 0.00 68 1018.0
20260506042244 0 0 0.0 1.0 0.00 0.04 0.00 69 1018.0
20260506041721 0 233 0.0 1.0 0.00 0.04 0.00 69 1017.9
20260506041158 0 0 0.0 0.0 0.00 0.04 0.00 66 1017.5
20260506040635 0 67 0.0 0.0 0.00 0.04 0.00 66 1017.8
20260506040112 0 0 0.0 0.0 0.00 0.04 0.00 69 1017.6
20260506035550 0 0 0.0 0.0 0.00 0.04 0.00 69 1017.6
20260506035026 0 0 0.0 0.0 0.00 0.04 0.00 66 1017.3
20260506034503 0 0 0.0 0.0 0.00 0.04 0.00 67 1017.4
20260506033941 0 0 0.0 0.0 0.00 0.04 0.00 68 1017.4
20260506033417 0 0 0.0 3.0 0.00 0.04 0.00 68 1017.5
20260506032856 0 0 0.0 3.0 0.00 0.04 0.00 60 1017.3
20260506032331 0 75 0.0 3.0 0.00 0.04 0.00 60 1017.0
20260506031808 0 117 0.0 4.0 0.00 0.04 0.00 58 1017.3
20260506031245 0 110 1.0 4.0 0.00 0.04 0.00 69 1017.3
20260506030722 0 98 0.0 4.0 0.00 0.04 0.00 69 1017.4
20260506030159 0 0 1.0 1.0 0.00 0.04 0.00 66 1017.0
20260506025636 0 0 0.0 1.0 0.00 0.04 0.00 70 1017.4
20260506025113 0 106 0.0 4.0 0.00 0.04 0.00 69 1017.3
20260506024550 0 0 0.0 4.0 0.00 0.04 0.00 67 1017.4
20260506024027 0 0 0.0 4.0 0.00 0.04 0.00 67 1016.9
20260506023504 0 145 0.0 4.0 0.00 0.04 0.00 68 1017.2
20260506022940 0 144 1.0 4.0 0.00 0.04 0.00 68 1017.3
20260506022418 0 147 2.0 4.0 0.00 0.04 0.00 67 1017.3
20260506021854 0 144 1.0 4.0 0.00 0.04 0.00 68 1017.2
20260506021331 0 0 0.0 4.0 0.00 0.04 0.00 66 1017.1
20260506020808 0 147 0.0 4.0 0.00 0.04 0.00 66 1017.2
20260506020245 0 145 2.0 4.0 0.00 0.04 0.00 65 1017.1
20260506015722 0 124 1.0 4.0 0.00 0.04 0.00 65 1017.1
20260506015159 0 106 0.0 5.0 0.00 0.04 0.00 65 1017.0
20260506014636 0 79 1.0 5.0 0.00 0.04 0.00 64 1017.0
20260506014114 0 99 2.0 5.0 0.00 0.04 0.00 65 1017.1
20260506013550 0 96 0.0 7.0 0.00 0.04 0.00 66 1017.2
20260506013028 0 144 1.0 7.0 0.00 0.04 0.00 64 1016.9
20260506012504 0 79 2.0 7.0 0.00 0.04 0.00 64 1017.1
20260506011941 0 88 2.0 5.0 0.00 0.04 0.00 64 1017.0
20260506011421 0 85 2.0 5.0 0.00 0.04 0.00 64 1017.1
20260506010855 0 112 0.0 4.0 0.00 0.04 0.00 64 1017.1
20260506010332 0 100 1.0 5.0 0.00 0.04 0.00 64 1016.9
20260506005809 0 79 0.0 5.0 0.00 0.04 0.00 64 1017.0
20260506005246 0 98 1.0 5.0 0.00 0.04 0.00 63 1017.0
20260506004723 0 140 3.0 5.0 0.00 0.04 0.00 63 1017.1
20260506004200 0 99 2.0 6.0 0.00 0.04 0.00 60 1017.0
20260506003638 0 92 2.0 6.0 0.00 0.04 0.00 59 1017.1
20260506003114 0 102 3.0 7.0 0.00 0.04 0.00 62 1017.1
20260506002552 0 103 0.0 7.0 0.00 0.04 0.00 62 1017.3
20260506002029 0 114 2.0 7.0 0.00 0.04 0.00 59 1017.1
20260506001505 0 123 3.0 6.0 0.00 0.04 0.00 60 1017.0
20260506000942 0 105 4.0 6.0 0.00 0.04 0.00 59 1017.0
20260506000419 0 114 1.0 6.0 0.00 0.04 0.00 60 1017.2
20260505235856 0 100 3.0 6.0 0.00 0.04 0.00 59 1017.0
20260505235333 0 95 0.0 5.0 0.00 0.04 0.00 60 1017.1
20260505234810 0 102 4.0 7.0 0.00 0.04 0.00 60 1017.0
20260505234247 0 121 1.0 7.0 0.00 0.04 0.04 60 1017.2
20260505233724 0 113 4.0 7.0 0.00 0.04 0.04 59 1017.3
20260505233201 0 113 2.0 7.0 0.00 0.04 0.04 59 1017.3
20260505232638 0 114 2.0 7.0 0.00 0.04 0.04 58 1017.3
20260505232116 0 110 3.0 5.0 0.00 0.04 0.04 58 1017.4
20260505231553 0 126 2.0 5.0 0.00 0.04 0.04 59 1017.6
20260505231029 0 84 2.0 6.0 0.00 0.04 0.04 59 1017.4
20260505230506 0 114 2.0 6.0 0.00 0.04 0.04 57 1017.4
20260505225943 0 112 4.0 6.0 0.00 0.04 0.04 58 1017.4
20260505225420 0 149 2.0 5.0 0.00 0.04 0.04 58 1017.6
20260505224857 0 134 2.0 5.0 0.00 0.04 0.04 58 1017.4
20260505224334 0 117 1.0 5.0 0.00 0.04 0.04 59 1017.4
20260505223811 0 148 2.0 5.0 0.00 0.04 0.04 59 1017.4
20260505223248 0 163 1.0 3.0 0.00 0.04 0.04 59 1017.8
20260505222725 0 130 1.0 4.0 0.00 0.04 0.04 59 1017.8